This demonstration page uses our WeatherBlox Daily Observations layout. Learn more.

Left ArrowRight Arrow

36.19886, -115.1175

Hourly Observations for November 12, 2015

Temp ( °F °C ) Dew Point ( °F °C ) Humidity (%) Winds ( mph kmh ) Pressure ( in mb ) Visibility ( mi km ) Precip ( " mm )
12:53 am 00:53 Clear 43 6.1 23 -5 45 45 NW 7 11 30.30 1026 10 16 0.00 0.00
1:53 am 01:53 Clear 45 7.2 19 -7.2 35 35 NNW 7 11 30.29 1026 10 16 0.00 0.00
2:53 am 02:53 Clear 41 5 21 -6.1 45 45 NNW 3 6 30.29 1026 10 16 0.00 0.00
3:53 am 03:53 Clear 41 5 22 -5.6 47 47 Calm 30.29 1026 10 16 0.00 0.00
4:53 am 04:53 Clear 40 4.4 22 -5.6 49 49 WNW 6 9 30.29 1026 10 16 0.00 0.00
5:53 am 05:53 Clear 44 6.7 20 -6.7 38 38 NW 10 17 30.29 1026 10 16 0.00 0.00
6:53 am 06:53 Sunny 42 5.6 21 -6.1 43 43 WNW 5 7 30.31 1027 10 16 0.00 0.00
7:53 am 07:53 Sunny 48 8.9 22 -5.6 36 36 NNE 5 7 30.33 1027 10 16 0.00 0.00
8:53 am 08:53 Sunny 52 11.1 22 -5.6 31 31 Calm 30.32 1027 10 16 0.00 0.00
9:53 am 09:53 Sunny 55 12.8 21 -6.1 26 26 N 6 9 30.30 1026 10 16 0.00 0.00
10:53 am 10:53 Sunny 56 13.3 21 -6.1 26 26 ESE 5 7 30.28 1025 10 16 0.00 0.00
11:53 am 11:53 Sunny 59 15 19 -7.2 21 21 Calm 30.24 1024 10 16 0.00 0.00
12:53 pm 12:53 Sunny 61 16.1 18 -7.8 19 19 Calm 30.21 1023 10 16 0.00 0.00
1:53 pm 13:53 Sunny 63 17.2 18 -7.8 17 17 ESE 3 6 30.19 1022 10 16 0.00 0.00
2:53 pm 14:53 Sunny 64 17.8 19 -7.2 18 18 SSE 3 6 30.18 1022 10 16 0.00 0.00
3:53 pm 15:53 Sunny 64 17.8 18 -7.8 17 17 Calm 30.17 1022 10 16 0.00 0.00
4:53 pm 16:53 Clear 62 16.7 20 -6.7 20 20 Calm 30.16 1022 10 16 0.00 0.00
5:53 pm 17:53 Clear 59 15 23 -5 25 25 WNW 3 6 30.17 1022 10 16 0.00 0.00
6:53 pm 18:53 Clear 55 12.8 17 -8.3 22 22 NW 6 9 30.19 1022 10 16 0.00 0.00
7:53 pm 19:53 Clear 57 13.9 15 -9.4 19 19 NNW 9 15 30.18 1022 10 16 0.00 0.00
8:53 pm 20:53 Clear 57 13.9 17 -8.3 21 21 N 9 15 30.18 1022 10 16 0.00 0.00
9:53 pm 21:53 Clear 56 13.3 17 -8.3 22 22 N 10 17 30.19 1022 10 16 0.00 0.00
10:53 pm 22:53 Clear 53 11.7 19 -7.2 26 26 N 8 13 30.19 1022 10 16 0.00 0.00
11:53 pm 23:53 Clear 52 11.1 18 -7.8 26 26 NNW 10 17 30.19 1022 10 16 0.00 0.00

Powered by AerisWeather